www.pogodaiklimat.ru

Погода и климат >> Архив погоды >> Россия >> Хабаровский край >> Чегдомын


ПОГОДА в Чегдомыне

  • Прогноз погоды в Чегдомыне
  • Монитор погоды в Чегдомыне

АРХИВ ПОГОДЫ в Чегдомыне

Время (UTC), дата Ветер
(напр.,м/с)
 
Видим.   Явления Облачность Т
(С)
Тd
(С)
f
(%)
Тe
(С)
Тes
(С)
Комфортность P
(гПа)
Po
(гПа)
Тmin
(С)
Tmax
(С)
R
(мм)
R24
(мм)
S
(см)
21 16.07 штиль 0 50 км 10/8 600 м
[Cb cap Ci]
+17.6 +16.9 96 +18 +18 1006.9 964.4 +16.0
00 17.07 ЮЗ 2 50 км 8/4 1000 м
[Cb cap Ci]
+23.6 +16.3 64 +27 +32 жарко 1005.8 964.3
03 17.07 Ю 3 50 км 6/3 1000 м
[Cb cap Ac trans Ci]
+25.8 +15.4 53 +29 +36 душно 1004.3 963.1
06 17.07 ЮЗ 2 50 км 6/3 1000 м
[Cb cap Ac trans Ci]
+27.6 +15.2 47 +30 +36 жарко 1001.7 960.9
09 17.07 ЮЗ 2 50 км 6/3 1000 м
[Cb cap Ac trans Ci]
+25.8 +15.5 53 +29 +30 душно 1001.4 960.4 +27.9
12 17.07 ЮЗ 1 50 км 8/4 600 м
[Cb cap Ci]
+18.9 +16.8 88 +21 +21 комфорт 1003.4 961.3
15 17.07 штиль 0 50 км 10/6 1000 м
[Cb cap Ci]
+17.7 +16.6 93 +18 +18 1003.4 961.2
18 17.07 СВ 1 50 км 6/4 1000 м
[Cb cap Ci]
+16.2 +16.0 99 +17 +17 1003.1 960.6
21 17.07 СВ 1 50 км 10/6 1000 м
[Cb cap Ac trans Ci]
+16.3 +16.2 99 +17 +17 1003.1 960.7 +15.1
00 18.07 З 1 50 км 10/8 600 м
[Cb cap Ci]
+21.5 +17.6 78 +26 +28 душно 1001.8 960.2
03 18.07 З 1 50 км 8/6 600 м
[Cb cap Ci]
+25.8 +16.4 56 +29 +36 душно 999.9 958.9
09 18.07 З 2 50 км гроза без осадков 10/8 600 м
[Cb cap Ci]
+24.1 +16.8 64 +28 +28 душно 999.6 958.4 +27.1
12 18.07 Ю 1 50 км в посл. час гроза 10/6 1000 м
[Cb cap Ci]
+19.7 +18.2 91 +23 +23 комфорт 1001.8 960.0
15 18.07 штиль 0 50 км 9/6 1000 м
[Cb cap Ci]
+18.1 +18.0 99 +18 +18 1002.6 960.5
18 18.07 штиль 0 50 км 8/8 600 м
[Cb cap]
+16.7 +16.6 99 +17 +17 1002.8 960.5
21 18.07 штиль 0 200 м туман ?/? +17.3 +17.3 100 +17 +17 1004.0 961.7 +16.6
00 19.07 Ю 1 20 км в посл. час туман 10/10 600 м
[Cb cap]
+19.7 +18.1 90 +23 +23 комфорт 1004.0 962.1
03 19.07 СВ 1 50 км 6/4 1000 м
[Cb cap Ci]
+24.2 +18.6 71 +29 +40 душно 1003.6 962.3
06 19.07 З 1 50 км 10/1 1000 м
[Cb cap Ci]
+28.9 +16.0 46 +32 +41 душно 1001.8 961.2
09 19.07 З 1 50 км 10/0
[Ci]
+28.7 +16.7 48 +32 +34 душно 1002.1 961.5 +29.3
12 19.07 штиль 0 50 км 10/0
[Ci]
+22.0 +17.3 75 +26 +26 душно 1004.8 963.1
15 19.07 штиль 0 50 км 8/1 1000 м
[Cb cap Ci]
+18.2 +17.9 98 +19 +19 1006.5 964.3
18 19.07 штиль 0 50 км 3/0
[Ci fib]
+15.9 +15.7 99 +16 +16 1007.5 964.9
21 19.07 штиль 0 50 км 6/0
[Ci]
+16.0 +15.9 99 +16 +17 1008.8 966.1 +15.1
00 20.07 штиль 0 50 км 8/0
[Ci]
+24.6 +17.3 64 +29 +40 душно 1007.6 966.2
03 20.07 З 1 50 км 10/3 1000 м
[Cb cap Ci]
+29.3 +18.0 51 +34 +45 очень
душно
1006.2 965.4
09 20.07 штиль 0 50 км в посл. час ливневой дождь 10/8 600 м
[Cb cap Ci]
+25.1 +20.7 77 +31 +32 очень
душно
1005.1 964.0 +31.0 0.0
12 20.07 штиль 0 50 км {ливн. осадки} 10/4 1000 м
[Cb cap Ci]
+22.8 +18.1 75 +28 +28 душно 1006.6 965.0
15 20.07 штиль 0 50 км 10/8 1000 м
[Cb cap Ci]
+21.2 +18.1 82 +25 +25 комфорт 1007.7 965.8
18 20.07 В 1 50 км 8/4 1000 м
[Cb cap Ci]
+20.5 +16.9 80 +25 +25 комфорт 1007.2 965.2
21 20.07 В 1 50 км 10/4 1000 м
[Cb cap Ci]
+21.0 +17.0 78 +26 +27 душно 1007.2 965.3 +19.9
00 21.07 ЮЗ 1 50 км 10/6 1000 м
[Cb cap Ci]
+26.7 +18.6 61 +32 +35 очень
душно
1006.3 965.3
03 21.07 Ю 1 50 км 10/3 1000 м
[Cb cap Ac As Ci]
+29.1 +18.6 53 +34 +41 очень
душно
1005.1 964.4
06 21.07 ЮЗ 2 50 км 10/3 1000 м
[Cb cap Ac trans Ci]
+31.3 +19.7 50 +37 +41 очень
душно
1003.3 963.0
09 21.07 ЮЗ 3 50 км 10/6 1000 м
[Cb cap Ac und]
+26.4 +19.2 65 +32 +32 очень
душно
1004.5 963.5 +31.3
12 21.07 Ю 2 50 км 10/8 600 м
[Cb cap Ac und]
+23.9 +17.3 67 +28 +28 душно 1005.3 963.9
15 21.07 В 1 20 км слаб. ливневой дождь 10/10 600 м
[Cb cap]
+20.8 +16.6 77 +25 +25 комфорт 1005.2 963.3
18 21.07 штиль 0 10 км слаб. ливневой дождь 10/10 600 м
[Cb cap]
+18.6 +18.4 99 +20 +20 1004.4 962.3
21 21.07 В 1 50 км {ливн. осадки} 10/8 600 м
[Cb cap Ci]
+19.0 +18.2 95 +22 +22 комфорт 1003.6 961.6 +18.4 17
00 22.07 Ю 1 50 км {ливн. осадки} 10/8 600 м
[Cb cap Ci]
+20.3 +17.9 86 +25 +27 комфорт 1002.2 960.5
03 22.07 Ю 3 50 км 10/9 600 м
[Cb cap Ci]
+23.9 +18.8 73 +29 +30 душно 999.7 958.5
09 22.07 В 1 10 км дождь {ливн. осадки} 10/0 600 м
[As op]
+20.7 +20.2 97 +26 +27 душно 997.2 955.7 +25.9 7
12 22.07 ЮВ 1 10 км дождь {ливн. осадки} 10/0 600 м
[As op]
+18.8 +18.5 98 +21 +21 комфорт 996.9 955.1
21 22.07 Ю 1 20 км 10/10 600 м
[Cb cap]
+18.6 +18.6 100 +21 +21 комфорт 995.7 954.0 +17.9 34
00 23.07 ЮЗ 1 50 км {ливн. осадки, туман} 10/10 600 м
[Cb cap]
+20.3 +20.0 98 +25 +25 комфорт 995.6 954.1
09 23.07 ЮЗ 2 50 км 10/8 600 м
[Cb cap Ci]
+23.3 +18.7 75 +29 +30 душно 995.8 954.7 +26.9 7
12 23.07 В 1 10 км слаб. ливневой дождь 10/10 600 м
[Cb cap]
+18.5 +18.2 98 +20 +20 998.4 956.5

 

Местоположение метеостанции Чегдомын (Хабаровский край, Россия): широта 51.17 долгота 132.90 высота над уровнем моря 374 м.

В архиве по умолчанию представлена погода в Чегдомыне за последнюю неделю. Архивные данные за месяц целиком и за предыдущие месяцы, начиная с января 2011 года, Вы можете получить, выбрав интересующий диапазон дат из раскрывающегося списка и нажав кнопку "Ввод!".


*Определитесь, кто Вы:
робот инопланетянин человек

Внимание! Время в таблицах - всемирное. Для получения местного времени необходимо прибавить поправку, которая равна 10 ч.

Смотрите также архив погоды в соседних городах и на ближайших метеорологических станциях:

Погода в Усть-Умальте (Хабаровский край, Россия) (55 км)
Погода в Чекунде (Хабаровский край, Россия) (59 км)
Погода в Верховье Урми (Хабаровский край, Россия) (132 км)
Погода в Сутуре (Хабаровский край, Россия) (135 км)
Погода в Софийском Прииске (Хабаровский край, Россия) (140 км)
Погода в Хуларине (Хабаровский край, Россия) (149 км)
Погода в Сектагли (Хабаровский край, Россия) (157 км)
Погода в Куре (Хабаровский край, Россия) (183 км)
Погода в Урми (Хабаровский край, Россия) (198 км)
Погода в Стойбе (Амурская область, Россия) (199 км)

Пояснения к столбцам:

Ветер - указаны скорость ветра в м/с - средняя за 10 мин, порывы в срок и между сроками (в фигурных скобках) и направление, откуда дует ветер: С - северный, СВ - северо-восточный, В - восточный, ЮВ - юго-восточный, Ю - южный, ЮЗ - юго-западный, З - западный, СЗ - северо-западный.
Видимость - горизонтальная дальность видимости в метрах или километрах. При видимости от 1 до 10 км при отсутствии осадков обычно наблюдается дымка, при ухудшении видимости до 1 км и менее - туман. В сухую погоду видимость может ухудшаться дымом, пылью или мглою.
Явления - указаны атмосферные явления, наблюдавшиеся в срок или в последний час перед сроком; фигурными скобками обозначены явления, наблюдавшиеся между сроками (за 1-3 часа до срока); квадратными скобками обозначены град или гололедные отложения с указанием их диаметра в мм.
Облачность - указаны через наклонную черту общая и нижняя облачность в баллах и высота нижней границы облаков в метрах; квадратными скобками обозначены формы облаков: Ci - перистые, Cs - перисто-слоистые, Cc - перисто-кучевые, Ac - высококучевые, As - высокослоистые, Sc - слоисто-кучевые, Ns - слоисто-дождевые, Cu - кучевые, Cb - кучево-дождевые. Подробнее классификацию облаков см. в Атласе облаков (PDF).
T - Температура воздуха - температура, измеренная на высоте 2 м над землей.
Td - Температура точки росы - температура, при понижении до которой содержащийся в воздухе водяной пар достигнет насыщения.
f - Относительная влажность воздуха - влажноcть воздуха, измеренная на высоте 2 м над землей.
Te - Эффективная температура - температура, которую ощущает одетый по сезону человек в тени. Характеристика душности погоды. При расчете учитывается влияние влажности воздуха и скорости ветра на теплоощущения человека.
Tes - Эффективная температура на солнце - температура, которую ощущает человек, с поправкой на солнечный нагрев. Характеристика знойности погоды. Зависит от высоты солнца над горизонтом, облачности и скорости ветра. Ночью, в пасмурную погоду, а также при ветре 12 м/с и более поправка равна нулю.
P - Атмосферное давление - приведенное к уровню моря атмосферное давление.
Po - Атмосферное давление - измеренное на уровне метеостанции атмосферное давление.
Tmin - Минимальная температура - минимум температуры воздуха на высоте 2 м над землей.
Tmax - Максимальная температура - максимум температуры воздуха на высоте 2 м над землей.
R - Количество осадков - Количество выпавших осадков за период времени, мм. При наведении курсора мыши на число - период времени, за который выпало указанное количество осадков.
R24 - Количество осадков - Количество выпавших осадков за 24 часа, мм.
S - Снежный покров - Высота снежного покрова, см. При наведении курсора мыши на число - состояние снежного покрова и степень покрытия местности в баллах.